DW4230 Weather Reports


time (UTC)temp
F
wind
direction
speed
knots
gust
knots
rain 1hr
in
rain 24hr
in
rain mn
in
humidity
%
barometer
mb
20260506180107 58 227 12.2 25.2 0.00 0.00 0.00 85 1010.7
20260506174502 58 268 11.3 22.6 0.00 0.00 0.00 84 1011.2
20260506173006 59 124 12.2 20.9 0.00 0.00 0.00 84 1011.1
20260506171519 59 124 12.2 24.3 0.00 0.00 0.00 84 1011.2
20260506170023 59 124 14.8 22.6 0.00 0.00 0.00 85 1011.3
20260506164537 58 234 13.0 24.3 0.00 0.00 0.00 85 1011.7
20260506163025 58 124 12.2 24.3 0.00 0.00 0.00 85 1011.7
20260506161617 58 124 10.4 17.4 0.00 0.00 0.00 85 1012.0
20260506160113 58 260 10.4 20.0 0.00 0.00 0.00 85 1012.3
20260506154550 58 124 9.6 20.0 0.00 0.00 0.00 85 1012.6
20260506153039 57 272 11.3 22.6 0.00 0.00 0.00 85 1012.7
20260506151554 58 239 10.4 20.0 0.00 0.00 0.00 85 1012.8
20260506150031 58 124 9.6 20.9 0.00 0.00 0.00 84 1012.7
20260506144518 58 250 10.4 18.2 0.00 0.00 0.00 85 1012.7
20260506143015 58 271 7.8 16.5 0.00 0.00 0.00 86 1012.6
20260506141613 57 239 7.0 16.5 0.00 0.00 0.00 85 1012.5
20260506140108 58 124 8.7 19.1 0.00 0.00 0.00 85 1012.6
20260506134600 58 124 10.4 19.1 0.00 0.00 0.00 85 1012.9
20260506133035 58 124 7.8 15.6 0.00 0.00 0.00 86 1012.9
20260506131534 57 124 8.7 16.5 0.00 0.00 0.00 86 1012.8
20260506130013 57 202 9.6 16.5 0.00 0.00 0.00 86 1012.5
20260506124511 57 253 7.0 15.6 0.00 0.00 0.00 87 1012.6
20260506123040 57 124 7.8 19.1 0.00 0.00 0.00 87 1012.6
20260506121503 57 202 8.7 19.1 0.00 0.00 0.00 87 1012.4
20260506120125 56 193 10.4 21.7 0.00 0.00 0.00 88 1012.8
20260506114548 56 264 11.3 18.2 0.00 0.00 0.00 89 1012.9
20260506113110 55 124 12.2 20.0 0.00 0.00 0.00 89 1012.9
20260506111605 56 124 8.7 15.6 0.00 0.00 0.00 89 1012.9
20260506110012 56 124 7.0 13.9 0.00 0.00 0.00 90 1013.1
20260506104504 55 124 7.0 15.6 0.00 0.00 0.00 91 1013.2
20260506103025 55 124 7.8 16.5 0.00 0.00 0.00 92 1012.8
20260506101529 54 263 7.0 13.0 0.00 0.00 0.00 92 1013.0
20260506100054 54 202 7.8 13.9 0.00 0.00 0.00 93 1012.8
20260506094546 54 262 7.0 13.9 0.00 0.00 0.00 92 1012.8
20260506093051 54 124 8.7 16.5 0.00 0.00 0.00 92 1012.8
20260506091532 54 124 8.7 17.4 0.00 0.00 0.00 92 1013.1
20260506090018 54 258 7.0 13.9 0.00 0.00 0.00 92 1013.1
20260506084523 54 260 6.1 13.0 0.00 0.00 0.00 92 1013.2
20260506083041 54 260 7.0 13.0 0.00 0.00 0.00 92 1013.3
20260506081536 54 258 7.0 16.5 0.00 0.00 0.00 92 1013.2
20260506073104 54 275 8.7 14.8 0.00 0.00 0.00 92 1013.2
20260506071548 54 256 8.7 14.8 0.00 0.00 0.00 92 1013.4
20260506070108 54 264 8.7 14.8 0.00 0.00 0.00 92 1013.2
20260506061526 54 124 10.4 17.4 0.00 0.00 0.00 91 1013.0
20260506060108 54 124 9.6 20.0 0.00 0.00 0.00 91 1013.2
20260506044512 54 235 11.3 20.0 0.00 0.00 0.00 90 1013.5
20260506043015 54 124 9.6 16.5 0.00 0.00 0.00 90 1013.5
20260506041512 54 124 8.7 14.8 0.00 0.00 0.00 90 1013.4
20260506040011 54 263 8.7 16.5 0.00 0.00 0.00 90 1013.5
20260506034605 54 261 7.8 13.9 0.00 0.00 0.00 90 1013.6
20260506033115 54 280 10.4 17.4 0.00 0.00 0.00 89 1013.5
20260506031515 54 262 8.7 20.0 0.00 0.00 0.00 89 1013.4
20260506030021 54 260 12.2 16.5 0.00 0.00 0.00 89 1013.2
20260506024611 54 124 11.3 17.4 0.00 0.00 0.00 88 1013.2
20260506023100 54 258 8.7 15.6 0.00 0.00 0.00 87 1013.1
20260506021616 54 124 8.7 16.5 0.00 0.00 0.00 86 1013.2
20260506020009 54 221 9.6 15.6 0.00 0.00 0.00 85 1013.3
20260506014511 54 253 9.6 15.6 0.00 0.00 0.00 85 1013.3
20260506013101 54 265 8.7 13.9 0.00 0.00 0.00 85 1013.3
20260506011529 55 262 6.1 13.0 0.00 0.00 0.00 85 1013.3
20260506010035 54 265 5.2 13.0 0.00 0.00 0.00 85 1013.3
20260506004555 54 267 4.3 12.2 0.00 0.00 0.00 86 1013.0
20260506003018 54 124 7.0 13.9 0.00 0.00 0.00 87 1012.3
20260506001509 54 124 6.1 13.0 0.00 0.00 0.00 87 1011.8
20260506000022 54 258 9.6 15.6 0.00 0.00 0.00 87 1011.8
20260505234531 54 281 10.4 15.6 0.00 0.00 0.00 86 1011.8
20260505233015 55 263 6.1 13.9 0.00 0.00 0.00 86 1011.9
20260505231614 55 269 8.7 14.8 0.00 0.00 0.00 87 1011.5
20260505230056 54 124 7.8 17.4 0.00 0.00 0.00 87 1011.4
20260505224604 54 124 10.4 15.6 0.00 0.00 0.00 87 1011.3
20260505223051 55 268 9.6 14.8 0.00 0.00 0.00 86 1011.4
20260505221551 55 258 8.7 15.6 0.00 0.00 0.00 85 1011.2
20260505220027 56 260 11.3 18.2 0.00 0.00 0.00 84 1011.3
20260505214519 56 220 8.7 17.4 0.00 0.00 0.00 84 1011.2
20260505213003 56 246 8.7 20.9 0.00 0.00 0.00 84 1011.3
20260505211505 56 217 12.2 20.9 0.00 0.00 0.00 84 1010.9
20260505210022 56 124 13.0 20.9 0.00 0.00 0.00 84 1011.1
20260505204555 56 258 8.7 20.0 0.00 0.00 0.00 84 1011.0
20260505203054 57 221 10.4 20.0 0.00 0.00 0.00 83 1011.1
20260505201603 57 271 9.6 17.4 0.00 0.00 0.00 83 1011.0
20260505200025 57 265 7.8 21.7 0.00 0.00 0.00 83 1011.1
20260505194524 57 248 8.7 19.1 0.00 0.00 0.00 83 1011.3
20260505193034 57 266 8.7 16.5 0.00 0.00 0.00 84 1011.3
20260505191608 57 124 9.6 18.2 0.00 0.00 0.00 84 1011.4
20260505190111 57 231 11.3 20.0 0.00 0.00 0.00 83 1011.5
20260505184611 57 124 12.2 21.7 0.00 0.00 0.00 83 1011.7
20260505183104 57 258 11.3 18.2 0.00 0.00 0.00 83 1011.7
20260505181555 57 124 10.4 15.6 0.00 0.00 0.00 84 1011.8